CES8667 ZYTL-ZGGG

Flight info

Callsign CES8667
Flight time N/A
Altitude 36100
Route KAR09D KARPI W5 TAO DCT URBAD W172 LATUX W108 MATNU W115 PINOT W11 PUD A599 NXD W131 AKDIM A470 DUBGO W134 ELNEX A599 PLT W19 OLPAB OLPAB9
Aircraft B77W/H-SDE1E2E3FGHIJ2J3J4J5M1RWXY/LB1D1

Departure

Time 2026-04-18 07:39
Airport Dalian Zhoushuizi International Airport (ZYTL)

Arrival

Time N/A
Airport Guangzhou Baiyun International Airport (ZGGG)
Time Latitude Longitude Altitude Speed Heading
2026-04-18 07:24 38.96249 121.53785 120 ft 0 kts 182°
2026-04-18 07:32 38.96202 121.53783 116 ft 2 kts
2026-04-18 07:33 38.96227 121.53786 116 ft 4 kts
2026-04-18 07:33 38.96253 121.53790 120 ft 4 kts
2026-04-18 07:33 38.96279 121.53792 118 ft 2 kts 359°
2026-04-18 07:33 38.96273 121.53792 118 ft 0 kts 358°
2026-04-18 07:35 38.96277 121.53792 118 ft 4 kts 358°
2026-04-18 07:35 38.96338 121.53788 117 ft 12 kts 352°
2026-04-18 07:35 38.96390 121.53701 118 ft 16 kts 283°
2026-04-18 07:36 38.96409 121.53518 119 ft 25 kts 276°
2026-04-18 07:36 38.96417 121.53261 118 ft 33 kts 265°
2026-04-18 07:36 38.96428 121.52939 117 ft 40 kts 277°
2026-04-18 07:36 38.96458 121.52557 121 ft 46 kts 277°
2026-04-18 07:37 38.96493 121.52126 119 ft 52 kts 276°
2026-04-18 07:37 38.96535 121.51962 116 ft 13 kts 333°
2026-04-18 07:37 38.96629 121.51955 118 ft 16 kts
2026-04-18 07:37 38.96708 121.52019 118 ft 14 kts 73°
2026-04-18 07:38 38.96702 121.52154 117 ft 3 kts 95°
2026-04-18 07:38 38.96686 121.52276 119 ft 47 kts 103°
2026-04-18 07:38 38.96620 121.53047 120 ft 125 kts 96°
2026-04-18 07:39 38.96523 121.54404 314 ft 161 kts 95°
2026-04-18 07:39 38.96415 121.55923 827 ft 178 kts 97°
2026-04-18 07:39 38.96291 121.57555 1520 ft 187 kts 99°
2026-04-18 07:39 38.96153 121.59261 2102 ft 201 kts 98°
2026-04-18 07:40 38.95995 121.61158 2410 ft 227 kts 98°
2026-04-18 07:40 38.95812 121.63302 2704 ft 257 kts 98°
2026-04-18 07:40 38.95610 121.65634 3402 ft 266 kts 97°
2026-04-18 07:40 38.95404 121.68007 4245 ft 271 kts 97°
2026-04-18 07:41 38.95296 121.70432 4952 ft 276 kts 81°
2026-04-18 07:41 38.96043 121.72686 5697 ft 280 kts 49°
2026-04-18 07:41 38.97599 121.74151 6452 ft 282 kts 19°
2026-04-18 07:41 38.99501 121.74702 7230 ft 281 kts
2026-04-18 07:42 39.01441 121.74619 7867 ft 283 kts 340°
2026-04-18 07:42 39.03107 121.73346 8660 ft 280 kts 312°
2026-04-18 07:42 39.04134 121.71252 9479 ft 280 kts 288°
2026-04-18 07:42 39.04506 121.68804 10190 ft 282 kts 275°
2026-04-18 07:43 39.04688 121.66222 10589 ft 302 kts 274°
2026-04-18 07:43 39.04879 121.63424 10803 ft 328 kts 274°
2026-04-18 07:43 39.05095 121.60402 11000 ft 355 kts 274°
2026-04-18 07:43 39.04966 121.57187 11427 ft 365 kts 254°
2026-04-18 07:44 39.03873 121.54229 12191 ft 373 kts 232°
2026-04-18 07:44 39.02011 121.51913 13104 ft 378 kts 212°
2026-04-18 07:44 38.99683 121.50325 13924 ft 383 kts 205°
2026-04-18 07:44 38.97281 121.48851 14775 ft 388 kts 205°
2026-04-18 07:45 38.95025 121.47466 15677 ft 391 kts 206°
2026-04-18 07:45 38.92559 121.45918 16514 ft 398 kts 206°
2026-04-18 07:45 38.90069 121.44329 17359 ft 404 kts 207°
2026-04-18 07:45 38.87573 121.42726 18209 ft 409 kts 207°
2026-04-18 07:46 38.84991 121.41071 19023 ft 413 kts 207°
2026-04-18 07:46 38.82415 121.39423 19840 ft 416 kts 207°
2026-04-18 07:46 38.79814 121.37762 20658 ft 419 kts 206°
2026-04-18 07:46 38.77204 121.36096 21445 ft 423 kts 206°
2026-04-18 07:47 38.74565 121.34413 22213 ft 426 kts 206°
2026-04-18 07:47 38.71900 121.32715 22963 ft 431 kts 206°
2026-04-18 07:47 38.69226 121.31011 23663 ft 435 kts 206°
2026-04-18 07:47 38.66526 121.29293 24233 ft 439 kts 206°
2026-04-18 07:48 38.63759 121.27533 24826 ft 443 kts 206°
2026-04-18 07:48 38.60985 121.25769 25385 ft 447 kts 206°
2026-04-18 07:48 38.58193 121.23997 25916 ft 452 kts 206°
2026-04-18 07:48 38.55407 121.22142 26407 ft 454 kts 212°
2026-04-18 07:49 38.52981 121.19553 26786 ft 460 kts 230°
2026-04-18 07:49 38.51099 121.16263 27225 ft 461 kts 235°
2026-04-18 07:49 38.49238 121.12919 27681 ft 465 kts 234°
2026-04-18 07:49 38.47333 121.09577 28220 ft 468 kts 234°
2026-04-18 07:50 38.45395 121.06235 28727 ft 470 kts 234°
2026-04-18 07:50 38.43436 121.02892 29185 ft 473 kts 234°
2026-04-18 07:50 38.41456 120.99531 29603 ft 477 kts 234°
2026-04-18 07:50 38.39461 120.96151 29983 ft 480 kts 234°
2026-04-18 07:51 38.37451 120.92747 30355 ft 481 kts 234°
2026-04-18 07:51 38.35450 120.89358 30862 ft 479 kts 234°
2026-04-18 07:51 38.33456 120.85984 31422 ft 476 kts 234°
2026-04-18 07:51 38.31492 120.82661 31937 ft 473 kts 234°
2026-04-18 07:52 38.29520 120.79328 32419 ft 472 kts 234°
2026-04-18 07:52 38.27553 120.76006 32873 ft 471 kts 234°
2026-04-18 07:52 38.25520 120.72771 33269 ft 470 kts 227°
2026-04-18 07:52 38.22969 120.70173 33565 ft 474 kts 210°
2026-04-18 07:53 38.20010 120.68380 33887 ft 473 kts 206°
2026-04-18 07:53 38.17026 120.66652 34227 ft 472 kts 206°
2026-04-18 07:53 38.14062 120.64881 34627 ft 470 kts 207°
2026-04-18 07:53 38.11134 120.63077 35037 ft 467 kts 208°
2026-04-18 07:54 38.08224 120.61262 35403 ft 466 kts 208°
2026-04-18 07:54 38.05309 120.59499 35718 ft 466 kts 204°
2026-04-18 07:54 38.02249 120.58136 35927 ft 470 kts 198°
2026-04-18 07:54 37.99058 120.57178 35968 ft 475 kts 193°
2026-04-18 07:55 37.92489 120.56387 36000 ft 473 kts 185°
2026-04-18 07:55 37.85964 120.55993 35993 ft 469 kts 185°
2026-04-18 07:56 37.79478 120.55547 35997 ft 467 kts 186°
2026-04-18 07:56 37.73003 120.55061 35995 ft 467 kts 186°
2026-04-18 07:57 37.66548 120.54577 35995 ft 467 kts 186°
2026-04-18 07:57 37.60077 120.53758 35995 ft 467 kts 189°
2026-04-18 07:58 37.50417 120.52260 35990 ft 468 kts 189°
2026-04-18 07:59 37.43956 120.51277 35991 ft 469 kts 189°
2026-04-18 07:59 37.37503 120.50312 35988 ft 469 kts 189°
2026-04-18 08:00 37.31010 120.49349 35991 ft 472 kts 189°
2026-04-18 08:00 37.24766 120.48420 36000 ft 479 kts 189°
2026-04-18 08:01 37.18109 120.47433 35993 ft 486 kts 189°
2026-04-18 08:01 37.12120 120.46547 35987 ft 489 kts 189°
2026-04-18 08:02 37.05899 120.45628 35995 ft 491 kts 189°
2026-04-18 08:02 36.99221 120.44644 35994 ft 491 kts 189°
2026-04-18 08:03 36.92456 120.43648 35995 ft 490 kts 189°
2026-04-18 08:03 36.85713 120.42657 35996 ft 488 kts 189°
2026-04-18 08:04 36.78989 120.41670 35997 ft 486 kts 189°
2026-04-18 08:04 36.72294 120.40689 36002 ft 485 kts 189°
2026-04-18 08:05 36.65626 120.39713 36003 ft 484 kts 189°
2026-04-18 08:05 36.58957 120.38740 36010 ft 483 kts 189°
2026-04-18 08:06 36.52288 120.37828 36013 ft 484 kts 186°
2026-04-18 08:06 36.45571 120.37578 36019 ft 485 kts 184°
2026-04-18 08:07 36.38840 120.37374 36020 ft 485 kts 184°
2026-04-18 08:07 36.32106 120.37327 36014 ft 488 kts 177°
2026-04-18 08:08 36.25489 120.39242 36031 ft 495 kts 163°
2026-04-18 08:08 36.19295 120.43082 36033 ft 500 kts 154°
2026-04-18 08:09 36.13059 120.46801 36029 ft 496 kts 165°
2026-04-18 08:09 36.06386 120.48553 36038 ft 490 kts 178°
2026-04-18 08:10 35.99612 120.48988 36038 ft 490 kts 176°
2026-04-18 08:10 35.92942 120.50828 36043 ft 495 kts 165°
2026-04-18 08:11 35.86921 120.53947 36052 ft 498 kts 158°
2026-04-18 08:11 35.80624 120.57517 36044 ft 499 kts 158°
2026-04-18 08:12 35.74299 120.61001 36046 ft 500 kts 158°
2026-04-18 08:12 35.68112 120.64930 36053 ft 502 kts 154°
2026-04-18 08:13 35.62007 120.69097 36046 ft 504 kts 154°
2026-04-18 08:13 35.55875 120.73234 36049 ft 505 kts 154°
2026-04-18 08:14 35.49714 120.77352 36048 ft 506 kts 154°
2026-04-18 08:14 35.43330 120.80895 36049 ft 504 kts 161°
2026-04-18 08:15 35.36819 120.84053 36050 ft 505 kts 161°
2026-04-18 08:15 35.30303 120.87250 36042 ft 506 kts 160°
2026-04-18 08:16 35.23793 120.90484 36047 ft 506 kts 160°
2026-04-18 08:16 35.17278 120.93719 36043 ft 506 kts 160°
2026-04-18 08:17 35.10773 120.96942 36041 ft 506 kts 160°
2026-04-18 08:17 35.04253 121.00179 36044 ft 506 kts 160°
2026-04-18 08:18 34.97750 121.03405 36044 ft 506 kts 160°
2026-04-18 08:18 34.91420 121.06540 36043 ft 506 kts 161°
2026-04-18 08:19 34.84913 121.09756 36039 ft 506 kts 161°
2026-04-18 08:19 34.78397 121.12970 36040 ft 506 kts 161°
2026-04-18 08:20 34.71878 121.16181 36038 ft 506 kts 161°